Вернуться в каталог

USA 408

АктивенВоенныеVLEO
NORAD 61029·PAYLOAD·🇺🇸 United States

Запущен Sep 6, 2024 с Vandenberg Space Force Base

Loading…

Ближайшие Пролёты (ближайшие 24 часа)

TLE

УстаревшееSource: Mike McCants

Эпоха: Sep 9, 2026, 20:59 UTC

1 61029U 24160J   26252.87464984 0.00000000  00000-0  00000-0 0    01
2 61029  70.0228 159.5031 0003000 217.6800 142.3200 14.96713665    00

Отслеживайте USA 408 в реальном времени с AllMySat

Download on the App Store